Content
SEND FEEDBACK

Daily
Averages
Monthly
Summary
United States of America

OSKALOOSA, KANSAS


Home > North America > United States > Kansas
Elevation: 1094 feet     Latitude: 39 13N     Longitude: 095 19W

WEATHER
 
SELECT A DAY
Number of Records: 189,432;   Date Range: 7/1/96 - 10/30/14
 
SHARE

PRINT THIS DATA

[ ← Previous Day ]
WEATHER ALMANAC - FEBRUARY 13, 2013
[ Next Day → ]
[ °C ]   °F
Weather ElementAverageHighLow
Temperature37.7 °F57.9 °F (2:52 pm)21.9 °F (4:52 am)
Dewpoint22.5 °F27 °F (9:52 am)18 °F (4:52 am)
Humidity59.7 %85 % (4:52 am)25 % (2:52 pm)
Barometer29.89 in29.96 in (1:52 am)29.82 in (3:52 pm)
Wind Speed4.7 mph18.4 mph (3:52 pm)
Wind Gust24.2 mph (3:52 pm)
Weather ElementAverage
Visibility9.2 mi
Wind DirectionSE (137 °)

Weather ElementTotal
Precipitation---
Heating Degree Days25.1 (Base 65)
Averaged from 23 records on February 13, 2013
WEATHER CONDITIONS BREAKOUT
WIND DIRECTION BREAKOUT
WEATHER BY HOUR - FEBRUARY 13, 2013
[ °C ]   °F
Local TimeTemperatureDewpointHumidityBarometerVisibilityWind DirectionWind SpeedGust SpeedPrecipitationEventsConditions
1:52 AM24.1 °F19.9 °F84 %29.96 in8.0 miCalmClear
2:52 AM24.1 °F19.0 °F81 %29.95 in9.0 miCalmClear
3:52 AM25.0 °F19.9 °F81 %29.93 in9.0 miWest (280°)4.6 mphClear
4:52 AM21.9 °F18.0 °F85 %29.93 in8.0 miNW (320°)5.8 mphClear
5:52 AM24.1 °F19.9 °F84 %29.93 in8.0 miCalmClear
6:52 AM21.9 °F18.0 °F85 %29.94 in7.0 miCalmClear
7:52 AM25.0 °F19.9 °F81 %29.94 in6.0 miCalmHaze
8:52 AM32.0 °F25.0 °F75 %29.94 in7.0 miCalmClear
9:52 AM37.0 °F27.0 °F67 %29.94 in9.0 miNW (310°)3.5 mphClear
10:52 AM44.1 °F27.0 °F51 %29.93 in10.0 miNW (310°)5.8 mphClear
11:52 AM50.0 °F27.0 °F41 %29.93 in10.0 miNW (310°)9.2 mphClear
12:52 PM54.0 °F25.0 °F33 %29.89 in10.0 miVariable5.8 mph23.0 mphClear
1:52 PM55.9 °F23.0 °F28 %29.86 in10.0 miWSW (250°)11.5 mphClear
2:52 PM57.9 °F21.9 °F25 %29.83 in10.0 miWest (260°)16.1 mphClear
3:52 PM57.0 °F24.1 °F28 %29.82 in10.0 miWNW (290°)18.4 mph24.2 mphClear
4:52 PM55.0 °F24.1 °F30 %29.83 in10.0 miWNW (290°)11.5 mphClear
5:52 PM51.1 °F24.1 °F35 %29.83 in10.0 miWNW (290°)10.4 mphClear
6:52 PM48.0 °F23.0 °F37 %29.84 in10.0 miWSW (240°)4.6 mphClear
7:52 PM35.1 °F23.0 °F61 %29.85 in10.0 miCalmClear
8:52 PM33.1 °F23.0 °F66 %29.84 in10.0 miCalmClear
9:52 PM30.0 °F21.9 °F72 %29.85 in10.0 miCalmClear
10:52 PM30.0 °F21.9 °F72 %29.85 in10.0 miCalmClear
11:52 PM30.0 °F21.9 °F72 %29.86 in10.0 miCalmClear
Hourly data recorded from KLWC, located miles away from Oskaloosa, Kansas







STORIES FROM OUR PARTNERS